sat.trackr.live / text

‹ back to catalog

STARLINK-33566

NORAD 62100 · 2024-220N

PAYLOAD ACTIVE UNKNOWN

§ Identity

Operator
Country
US
Launch date
2024-11-25
Launch site
AFETR
Launch vehicle
Mass (kg)
RCS (m²)

Purposes: comms

External: N2YO · Heavens-Above · Gunter

§ Orbital elements

Epoch: 2026-09-21T01:58:32.924064Z

Period
94.27 min
Inclination
43.0000°
Eccentricity
0.0001370
Mean motion
15.27588283 rev/d
Perigee alt
482.1 km
Apogee alt
484.0 km
Semi-major
6,861.2 km
B*
3.9943e-4
RAAN
167.3592°
Arg perigee
272.5135°
Mean anomaly
87.5559°
Rev number
10,324

§ Raw data

STARLINK-335661 62100U 24220N   26264.08232551  .00010748  00000+0  39943-3 0  99952 62100  43.0000 167.3592 0001370 272.5135  87.5559 15.27588283103245

JSON: /api/v1/satellites/62100 · /tle

For live sub-satellite position, see the globe view (requires WebGL).

§ Visibility from observer

Set your observer location to see the next 7 days of passes ≥ 10°. The values pass through the URL so the page stays shareable.

No JS? Fill the form by hand. The geolocation button needs JavaScript.